Regional Weather Roundup
Issued by NWS

Home | Current Version | Previous Version | Graphics & Text | Print | Product List | Glossary On
Versions: 1 2 3 4 5 6 7 8 9 10 11 12 13 14 15 16 17 18 19 20 21 22 23 24 25 26 27 28 29 30 31 32 33 34 35 36 37 38 39 40 41 42 43 44 45 46 47 48 49 50
000
ASUS43 KMPX 062210
RWRMN
WEATHER ROUNDUP FOR MINNESOTA
NATIONAL WEATHER SERVICE TWIN CITIES/CHANHASSEN MN
500 PM CDT FRI MAY 06 2016


NOTE: "FAIR" INDICATES FEW OR NO CLOUDS BELOW 12,000 FEET WITH NO
SIGNIFICANT WEATHER AND/OR OBSTRUCTIONS TO VISIBILITY. N/A MEANS
CURRENT SKY AND/OR WEATHER CONDITIONS ARE NOT AVAILABLE.

MNZ060>063-068>070-062300-
   Twin Cities Metro

CITY           SKY/WX    TMP DP  RH WIND       PRES   REMARKS
TWIN CITIES    MOSUNNY   91  47  21 SW15G24   29.65F
ST PAUL        MOSUNNY   88  50  27 SW16G23   29.65F
CRYSTAL        MOSUNNY   93  50  23 SW15G22   29.63F HX  90
BLAINE         MOSUNNY   91  48  22 SW16G23   29.65F
EDEN PRAIRIE   MOSUNNY   90  48  23 SW13G21   29.64F
SOUTH ST PAUL  MOSUNNY   90  47  22 SW9       29.66F
LAKE ELMO      FAIR      88  52  29 SW17      29.67F
$$
MNZ001>005-007-008-013>017-022>024-027-028-062300-
   Northwest Minnesota

CITY           SKY/WX    TMP DP  RH WIND       PRES   REMARKS
BEMIDJI        SUNNY     73  44  35 N21G28    29.79S
HALLOCK        CLOUDY    64  27  24 N20G25    29.93S
ROSEAU         CLOUDY    63  25  23 N29G36    29.90R
WARROAD        CLOUDY    61  37  41 NW17G25   29.89R
THIEF RVR FALL CLOUDY    61  27  27 N30G39    29.91R
CROOKSTON      CLOUDY    64  28  25 N28G36    29.90R
FOSSTON        PTSUNNY   70  36  28 N23G31    29.85S
DETROIT LAKES  MOSUNNY   72  43  35 N15G35    29.82R
MOORHEAD       CLOUDY    75  39  27 N28G38    29.83F
PARK RAPIDS    MOSUNNY   78  45  30 NW25G33   29.77R
MAHNOMEN       FAIR      72  43  35 N26G32    29.83R
$$
MNZ006-009>011-018-025>026-062300-
   North Central Minnesota

CITY           SKY/WX    TMP DP  RH WIND       PRES   REMARKS
BAUDETTE       CLOUDY    60  42  51 NW17G24   29.85R
FLAG ISLAND    CLOUDY    61  28  29 NW22G31   29.86S
INTL FALLS     CLOUDY    69  44  40 NW22G28   29.77R HAZE
WASKISH        CLOUDY    66  46  48 NW14G23   29.82R
BIG FORK       CLOUDY    73  43  33 NW9G22    29.75R
LONGVILLE      MOSUNNY   77  46  33 NW16G31   29.74R
GRAND RAPIDS   SUNNY    N/A N/A N/A NW25G44   29.70R
CRANE LAKE     PTSUNNY   72  46  40 NW16G25   29.71R HAZE
ORR            MOSUNNY   75  43  31 NW14G25   29.68R
COOK           MOSUNNY   79  46  31 NW16G25   29.68R
WALKER         FAIR      74  46  37 NW21G32   29.76R
$$
MNZ012-019>021-037-062300-
   Northeast Minnesota

CITY           SKY/WX    TMP DP  RH WIND       PRES   REMARKS
DULUTH         TSTM      68  54  60 SW15G28   29.64F
ELY            MOSUNNY   84  43  23 NW21G30   29.61R
HIBBING        SUNNY     83  47  28 NW24G33   29.63S
EVELETH        MOSUNNY   82  37  20 NW18G30   29.64R
DULUTH HARBOR  TSTM      70  54  56 NW25G32   29.62R
TWO HARBORS    CLOUDY    77  55  47 SW15      29.59S
SILVER BAY     PTSUNNY   82  48  30 SW8       29.57F
GRAND MARAIS     N/A     51  38  60 CALM      29.54F
G MARAIS ARPRT MOSUNNY   84  36  17 W9G22     29.58F
$$
MNZ029>031-032-039>041-046>048-054>057-064-062300-
   West Central Minnesota

CITY           SKY/WX    TMP DP  RH WIND       PRES   REMARKS
FERGUS FALLS   SUNNY     79  46  31 N20G30    29.75R
WHEATON        MOSUNNY   81  46  30 N24G36    29.80R
MORRIS         CLOUDY    88  46  23 NW25G33   29.72S
ALEXANDRIA     SUNNY     84  50  30 N14G22    29.75R
ELBOW LAKE     FAIR      78  48  34 NW24G31   29.76R
WADENA         MOSUNNY   81  48  32 NW22      29.74S
GLENWOOD       SUNNY     90  50  25 NW25      29.72F
APPLETON       MOSUNNY   88  43  20 N28G35    29.72R
BENSON         SUNNY     90  36  14 N14G20    29.70F
ORTONVILLE     CLOUDY    82  46  28 N21G33    29.74S
MADISON        PTSUNNY   88  43  20 NW14      29.72F
WILLMAR        FAIR      90  48  24 NW13G23   29.71F
$$
MNZ033>034-036-042>043-049>051-058-059-062300-
   Central Minnesota

CITY           SKY/WX    TMP DP  RH WIND       PRES   REMARKS
ST CLOUD       SUNNY     88  51  28 NW13G22   29.67F
SAUK CENTRE      N/A     88  51  28 NW13G23   29.70F
PAYNESVILLE    SUNNY     89  47  23 NW10G17   29.70F
AITKIN         TSTM      68  55  64 N15G33    29.67R VSB 1/4
PINE RIVER     MOSUNNY   81  52  36 NW18G28   29.74R
BRAINERD       SUNNY     89  47  23 NW24G35   29.67F
STAPLES        SUNNY     84  45  24 NW16G22   29.71S
LONG PRAIRIE   FAIR      88  50  27 W13       29.71S
LITTLE FALLS   SUNNY     88  46  23 W7        29.68F
LITCHFIELD     SUNNY     88  52  29 NW14      29.69F
BUFFALO        SUNNY     88  49  25 W7        29.67F
MAPLE LAKE     SUNNY     89  55  31 W12       29.68F
HUTCHINSON     CLOUDY    91  54  28 W17G25    29.69F
$$
MNZ037-044-045-052-053-062300-
   East Central Minnesota

CITY           SKY/WX    TMP DP  RH WIND       PRES   REMARKS
PRINCETON      SUNNY     90  52  27 W13G18    29.65F
MORA           SUNNY     86  50  28 W12       29.66F
CAMBRIDGE        N/A     91  64  40 SW12G20   29.63F HX  93
RUSH CITY      SUNNY     89  51  27 W13       29.64F
MOOSE LAKE     SUNNY     86  50  28 W9G20     29.63R
HINCKLEY       FAIR      88  55  33 SW12      29.64F
CLOQUET        TSTM      77  45  31 NW20G36   29.67R
MCGREGOR       CLOUDY    73  55  53 W3        29.67R THUNDER
$$
MNZ071>073-080-081-089-090-097-098-062300-
   Southwest Minnesota

CITY           SKY/WX    TMP DP  RH WIND       PRES   REMARKS
MONTEVIDEO     MOSUNNY   93  45  18 N10       29.72F
GRANITE FALLS  MOSUNNY   92  47  21 NW15      29.73F
CANBY          CLOUDY    89  52  27 NW17      29.74F
MARSHALL       MOSUNNY   91  44  19 NW17G32   29.73F
REDWOOD FALLS  SUNNY     90  44  20 NW15      29.70F
OLIVIA         SUNNY     82  43  24 NW16G24   29.70F
PIPESTONE      SUNNY     88  37  16 W15G23    29.79F
WINDOM         SUNNY     88  45  22 W22G31    29.76F
WORTHINGTON    MOSUNNY   88  48  25 SW23G29   29.79F
JACKSON        SUNNY     88  32  13 W20G30    29.79F
TRACY          SUNNY     90  46  21 W9        29.75F
SLAYTON        MOSUNNY   88  46  23 W21G29    29.78F
$$
MNZ065>067-074>077-082>085-091>093-062300-
   South Central Minnesota

CITY           SKY/WX    TMP DP  RH WIND       PRES   REMARKS
MANKATO        MOSUNNY   90  45  20 SW22G36   29.71F
NEW ULM        MOSUNNY   88  48  25 W15       29.70F
ST JAMES       SUNNY     84  43  23 W26G36    29.74F
FAIRMONT       SUNNY     88  28  11 SW26G32   29.76F
GLENCOE        SUNNY     91  54  29 W15G21    29.67F
FARIBAULT      SUNNY     90  45  20 SW16G29   29.72F
OWATONNA       SUNNY     90  37  15 SW25G36   29.74F
WASECA         SUNNY     90  43  19 SW24G35   29.75F
ALBERT LEA     SUNNY     88  37  16 SW17G30   29.77F
$$
MNZ078>079-086>088-094>096-062300-
   Southeast Minnesota

CITY           SKY/WX    TMP DP  RH WIND       PRES   REMARKS
ROCHESTER      SUNNY     88  42  20 SW25G31   29.76F
RED WING       SUNNY     91  39  16 W17G24    29.68F
STANTON        SUNNY     88  42  19 SW20G29   29.69F
DODGE CENTER   SUNNY     88  39  18 W21G30    29.76F
WINONA         SUNNY     90  41  18 W12G17    29.72F
AUSTIN         SUNNY     86  39  19 SW22G28   29.77F
PRESTON        SUNNY     85  40  19 W16       29.79F
$$
ABBREVIATIONS USED IN REMARKS
   TC - TEMPERATURES IN CELSIUS
  WCI - WIND CHILL INDEX
   HX - HEAT INDEX
  VSB - VISIBILITY
$$



USA.gov is the U.S. government's official web portal to all federal, state and local government web resources and services.